Time,TemperatureF,DewpointF,PressureIn,WindDirection,WindDirectionDegrees,WindSpeedMPH,WindSpeedGustMPH,Humidity,HourlyPrecipIn,Conditions,Clouds,dailyrainin,SoftwareType,DateUTC
2013-01-07 00:00:00,49.2,46.1,30.17,West,263,6.0,14.0,89,0.00,CLR,,0.00,WeatherDisplay:10.37,2013-01-07 00:00:00,
2013-01-07 00:15:00,49.3,46.4,30.17,West,268,8.0,13.0,90,0.00,CLR,,0.00,WeatherDisplay:10.37,2013-01-07 00:15:00,
2013-01-07 00:30:00,49.2,46.4,30.17,West,265,8.0,14.0,90,0.00,CLR,,0.00,WeatherDisplay:10.37,2013-01-07 00:30:00,
2013-01-07 00:45:00,49.1,46.3,30.16,West,264,6.0,12.0,90,0.00,CLR,,0.00,WeatherDisplay:10.37,2013-01-07 00:45:00,
2013-01-07 01:00:00,49.2,46.4,30.15,West,261,7.0,12.0,90,0.00,CLR,,0.00,WeatherDisplay:10.37,2013-01-07 01:00:00,
2013-01-07 01:15:00,49.3,46.5,30.15,WSW,255,6.0,13.0,90,0.00,CLR,,0.00,WeatherDisplay:10.37,2013-01-07 01:15:00,
2013-01-07 01:30:00,49.3,46.5,30.14,WSW,240,6.0,14.0,90,0.00,CLR,,0.00,WeatherDisplay:10.37,2013-01-07 01:30:00,
2013-01-07 01:45:00,49.3,46.5,30.14,WSW,258,7.0,12.0,90,0.00,CLR,,0.00,WeatherDisplay:10.37,2013-01-07 01:45:00,
2013-01-07 02:00:00,49.4,46.6,30.14,West,260,9.0,13.0,90,0.00,CLR,,0.00,WeatherDisplay:10.37,2013-01-07 02:00:00,
2013-01-07 02:15:00,49.5,46.7,30.14,West,264,6.0,15.0,90,0.00,CLR,,0.00,WeatherDisplay:10.37,2013-01-07 02:15:00,
2013-01-07 02:30:00,49.4,46.6,30.14,West,263,6.0,12.0,90,0.00,CLR,,0.00,WeatherDisplay:10.37,2013-01-07 02:30:00,
2013-01-07 02:45:00,49.3,46.8,30.13,West,265,3.0,10.0,91,0.00,CLR,,0.00,WeatherDisplay:10.37,2013-01-07 02:45:00,
2013-01-07 03:00:00,49.1,46.6,30.13,West,268,5.0,10.0,91,0.01,RA,,0.01,WeatherDisplay:10.37,2013-01-07 03:00:00,
2013-01-07 03:15:00,49.1,46.9,30.13,West,274,6.0,9.0,92,0.00,CLR,,0.01,WeatherDisplay:10.37,2013-01-07 03:15:00,
2013-01-07 03:30:00,48.9,46.7,30.13,West,267,5.0,9.0,92,0.00,CLR,,0.01,WeatherDisplay:10.37,2013-01-07 03:30:00,
2013-01-07 03:45:00,48.8,46.6,30.13,West,275,3.0,7.0,92,0.01,CLR,,0.02,WeatherDisplay:10.37,2013-01-07 03:45:00,
2013-01-07 04:00:00,48.7,46.8,30.13,West,271,3.0,8.0,93,0.02,RA,,0.03,WeatherDisplay:10.37,2013-01-07 04:00:00,
2013-01-07 04:15:00,48.6,46.7,30.12,West,266,3.0,7.0,93,0.02,RA,,0.05,WeatherDisplay:10.37,2013-01-07 04:15:00,
2013-01-07 04:30:00,48.5,46.6,30.12,WSW,257,5.0,10.0,93,0.02,RA,,0.06,WeatherDisplay:10.37,2013-01-07 04:30:00,
2013-01-07 04:45:00,48.4,46.8,30.12,WSW,256,5.0,8.0,94,0.01,RA,,0.07,WeatherDisplay:10.37,2013-01-07 04:45:00,
2013-01-07 05:00:00,48.5,46.8,30.12,WSW,256,5.0,9.0,94,0.00,CLR,,0.07,WeatherDisplay:10.37,2013-01-07 05:00:00,
2013-01-07 05:15:00,48.6,46.7,30.11,WSW,258,5.0,9.0,93,0.01,CLR,,0.08,WeatherDisplay:10.37,2013-01-07 05:15:00,
2013-01-07 05:30:00,48.8,46.9,30.11,West,259,5.0,8.0,93,0.00,CLR,,0.08,WeatherDisplay:10.37,2013-01-07 05:30:00,
2013-01-07 05:45:00,48.7,46.8,30.11,WSW,258,5.0,9.0,93,0.00,CLR,,0.08,WeatherDisplay:10.37,2013-01-07 05:45:00,
2013-01-07 06:00:00,48.6,46.7,30.10,WSW,250,5.0,9.0,93,0.00,CLR,,0.08,WeatherDisplay:10.37,2013-01-07 06:00:00,
2013-01-07 06:15:00,48.8,46.8,30.10,WSW,253,3.0,7.0,93,0.00,CLR,,0.08,WeatherDisplay:10.37,2013-01-07 06:15:00,
2013-01-07 06:30:00,48.9,47.0,30.10,West,269,3.0,8.0,93,0.00,CLR,,0.08,WeatherDisplay:10.37,2013-01-07 06:30:00,
2013-01-07 06:45:00,49.0,46.8,30.10,WSW,253,1.0,7.0,92,0.00,CLR,,0.08,WeatherDisplay:10.37,2013-01-07 06:45:00,
2013-01-07 07:00:00,49.0,46.8,30.10,West,261,1.0,5.0,92,0.00,CLR,,0.08,WeatherDisplay:10.37,2013-01-07 07:00:00,
2013-01-07 07:15:00,48.9,46.7,30.10,WSW,250,1.0,4.0,92,0.00,CLR,,0.08,WeatherDisplay:10.37,2013-01-07 07:15:00,
2013-01-07 07:30:00,49.1,46.9,30.10,WSW,245,2.0,6.0,92,0.00,CLR,,0.08,WeatherDisplay:10.37,2013-01-07 07:30:00,
2013-01-07 07:45:00,49.3,46.8,30.10,SW,224,5.0,7.0,91,0.00,CLR,,0.08,WeatherDisplay:10.37,2013-01-07 07:45:00,
2013-01-07 08:00:00,49.6,46.8,30.10,SW,222,5.0,12.0,90,0.00,CLR,,0.08,WeatherDisplay:10.37,2013-01-07 08:00:00,
2013-01-07 08:15:00,49.5,46.7,30.10,SW,228,5.0,8.0,90,0.00,CLR,,0.08,WeatherDisplay:10.37,2013-01-07 08:15:00,
2013-01-07 08:30:00,49.4,46.9,30.10,WSW,240,2.0,8.0,91,0.00,CLR,,0.08,WeatherDisplay:10.37,2013-01-07 08:30:00,
2013-01-07 08:45:00,49.3,46.5,30.10,SW,220,5.0,8.0,90,0.00,CLR,,0.08,WeatherDisplay:10.37,2013-01-07 08:45:00,
2013-01-07 09:00:00,49.3,46.8,30.09,SW,219,7.0,12.0,91,0.01,RA,,0.09,WeatherDisplay:10.37,2013-01-07 09:00:00,
2013-01-07 09:15:00,49.3,46.8,30.10,SW,231,5.0,9.0,91,0.00,CLR,,0.09,WeatherDisplay:10.37,2013-01-07 09:15:00,
2013-01-07 09:30:00,49.4,46.9,30.10,SW,229,6.0,12.0,91,0.00,CLR,,0.09,WeatherDisplay:10.37,2013-01-07 09:30:00,
2013-01-07 09:45:00,49.3,46.5,30.10,SW,215,7.0,12.0,90,0.00,CLR,,0.09,WeatherDisplay:10.37,2013-01-07 09:45:00,
2013-01-07 10:00:00,49.1,46.6,30.09,SW,219,9.0,17.0,91,0.00,CLR,,0.09,WeatherDisplay:10.37,2013-01-07 10:00:00,
2013-01-07 10:15:00,48.8,46.0,30.09,SW,220,6.0,14.0,90,0.00,CLR,,0.09,WeatherDisplay:10.37,2013-01-07 10:15:00,
2013-01-07 10:30:00,48.8,46.0,30.09,SW,227,8.0,14.0,90,0.00,CLR,,0.09,WeatherDisplay:10.37,2013-01-07 10:30:00,
2013-01-07 10:45:00,48.5,45.7,30.09,SW,223,7.0,15.0,90,0.00,CLR,,0.09,WeatherDisplay:10.37,2013-01-07 10:45:00,
2013-01-07 11:00:00,48.5,45.7,30.08,SW,225,6.0,13.0,90,0.01,RA,,0.09,WeatherDisplay:10.37,2013-01-07 11:00:00,
2013-01-07 11:15:00,48.5,45.7,30.08,SW,229,3.0,13.0,90,0.02,RA,,0.11,WeatherDisplay:10.37,2013-01-07 11:15:00,
2013-01-07 11:30:00,48.4,45.9,30.08,West,266,2.0,8.0,91,0.02,RA,,0.13,WeatherDisplay:10.37,2013-01-07 11:30:00,
2013-01-07 11:45:00,48.3,45.8,30.07,WNW,289,2.0,6.0,91,0.01,RA,,0.14,WeatherDisplay:10.37,2013-01-07 11:45:00,
2013-01-07 12:00:00,48.4,45.9,30.07,WNW,291,5.0,6.0,91,0.00,CLR,,0.14,WeatherDisplay:10.37,2013-01-07 12:00:00,
2013-01-07 12:15:00,48.4,45.9,30.07,WNW,288,2.0,6.0,91,0.01,RA,,0.15,WeatherDisplay:10.37,2013-01-07 12:15:00,
2013-01-07 12:30:00,48.3,46.1,30.06,WNW,290,1.0,4.0,92,0.02,RA,,0.17,WeatherDisplay:10.37,2013-01-07 12:30:00,
2013-01-07 12:45:00,48.2,46.2,30.05,North,353,0.0,3.0,93,0.02,RA,,0.19,WeatherDisplay:10.37,2013-01-07 12:45:00,
2013-01-07 13:00:00,48.1,46.5,30.05,North,352,0.0,2.0,94,0.03,RA,,0.22,WeatherDisplay:10.37,2013-01-07 13:00:00,
2013-01-07 13:15:00,48.1,46.4,30.04,NW,324,0.0,1.0,94,0.02,RA,,0.24,WeatherDisplay:10.37,2013-01-07 13:15:00,
2013-01-07 13:30:00,48.1,46.5,30.03,NW,316,0.0,1.0,94,0.02,RA,,0.26,WeatherDisplay:10.37,2013-01-07 13:30:00,
2013-01-07 13:45:00,47.8,45.8,30.03,ESE,109,5.0,5.0,93,0.02,RA,,0.28,WeatherDisplay:10.37,2013-01-07 13:45:00,
2013-01-07 14:00:00,46.9,45.5,30.02,ENE,77,3.0,5.0,95,0.02,RA,,0.29,WeatherDisplay:10.37,2013-01-07 14:00:00,
2013-01-07 14:15:00,46.7,45.7,30.02,ENE,62,2.0,7.0,96,0.02,RA,,0.31,WeatherDisplay:10.37,2013-01-07 14:15:00,
2013-01-07 14:30:00,46.8,45.7,30.02,ENE,71,2.0,6.0,96,0.02,RA,,0.32,WeatherDisplay:10.37,2013-01-07 14:30:00,
2013-01-07 14:45:00,46.7,45.6,30.02,ENE,64,2.0,4.0,96,0.02,RA,,0.34,WeatherDisplay:10.37,2013-01-07 14:45:00,
2013-01-07 15:00:00,47.3,46.2,30.02,East,98,1.0,2.0,96,0.02,RA,,0.35,WeatherDisplay:10.37,2013-01-07 15:00:00,
2013-01-07 15:15:00,47.1,46.1,30.02,NE,55,1.0,2.0,96,0.02,RA,,0.38,WeatherDisplay:10.37,2013-01-07 15:15:00,
2013-01-07 15:30:00,47.1,46.1,30.01,NE,54,3.0,6.0,96,0.02,RA,,0.40,WeatherDisplay:10.37,2013-01-07 15:30:00,
2013-01-07 15:45:00,47.2,46.1,30.02,NE,43,3.0,5.0,96,0.00,CLR,,0.40,WeatherDisplay:10.37,2013-01-07 15:45:00,
2013-01-07 16:00:00,47.7,46.9,30.01,ENE,64,0.0,3.0,97,0.00,CLR,,0.40,WeatherDisplay:10.37,2013-01-07 16:00:00,
2013-01-07 16:15:00,47.5,46.4,30.01,NE,53,2.0,3.0,96,0.00,CLR,,0.40,WeatherDisplay:10.37,2013-01-07 16:15:00,
2013-01-07 16:30:00,47.5,46.4,30.00,ENE,64,1.0,2.0,96,0.00,CLR,,0.40,WeatherDisplay:10.37,2013-01-07 16:30:00,
2013-01-07 16:45:00,48.6,47.8,30.01,WSW,240,0.0,2.0,97,0.00,CLR,,0.40,WeatherDisplay:10.37,2013-01-07 16:45:00,
2013-01-07 17:00:00,47.1,46.0,30.00,ENE,63,1.0,3.0,96,0.00,CLR,,0.40,WeatherDisplay:10.37,2013-01-07 17:00:00,
2013-01-07 17:15:00,47.3,46.5,30.00,East,97,0.0,4.0,97,0.00,CLR,,0.40,WeatherDisplay:10.37,2013-01-07 17:15:00,
2013-01-07 17:30:00,46.8,45.7,30.00,ENE,72,0.0,3.0,96,0.00,CLR,,0.40,WeatherDisplay:10.37,2013-01-07 17:30:00,
2013-01-07 17:45:00,47.1,46.0,30.00,NE,54,0.0,2.0,96,0.00,CLR,,0.40,WeatherDisplay:10.37,2013-01-07 17:45:00,
2013-01-07 18:00:00,47.3,46.2,30.00,NE,44,0.0,1.0,96,0.00,CLR,,0.40,WeatherDisplay:10.37,2013-01-07 18:00:00,
2013-01-07 18:15:00,47.7,46.9,30.00,SW,223,2.0,3.0,97,0.00,CLR,,0.40,WeatherDisplay:10.37,2013-01-07 18:15:00,
2013-01-07 18:30:00,47.7,46.6,30.01,WSW,249,1.0,4.0,96,0.00,CLR,,0.40,WeatherDisplay:10.37,2013-01-07 18:30:00,
2013-01-07 18:45:00,48.3,47.2,30.01,West,263,3.0,6.0,96,0.00,CLR,,0.40,WeatherDisplay:10.37,2013-01-07 18:45:00,
2013-01-07 19:00:00,48.9,47.5,30.01,West,275,3.0,6.0,95,0.00,CLR,,0.40,WeatherDisplay:10.37,2013-01-07 19:00:00,
2013-01-07 19:15:00,49.4,47.7,30.01,West,264,3.0,8.0,94,0.00,CLR,,0.40,WeatherDisplay:10.37,2013-01-07 19:15:00,
2013-01-07 19:30:00,49.5,47.8,30.01,West,267,2.0,7.0,94,0.00,CLR,,0.40,WeatherDisplay:10.37,2013-01-07 19:30:00,
2013-01-07 19:45:00,49.5,47.8,30.01,West,280,2.0,6.0,94,0.00,CLR,,0.40,WeatherDisplay:10.37,2013-01-07 19:45:00,
2013-01-07 20:00:00,49.1,47.7,30.02,WNW,297,3.0,6.0,95,0.00,CLR,,0.40,WeatherDisplay:10.37,2013-01-07 20:00:00,
2013-01-07 20:15:00,49.1,48.0,30.02,WNW,286,2.0,6.0,96,0.00,CLR,,0.40,WeatherDisplay:10.37,2013-01-07 20:15:00,
2013-01-07 20:30:00,49.0,47.9,30.02,WNW,291,3.0,4.0,96,0.00,CLR,,0.40,WeatherDisplay:10.37,2013-01-07 20:30:00,
2013-01-07 20:45:00,49.1,48.0,30.02,West,278,2.0,5.0,96,0.01,,,0.41,WeatherDisplay:10.37,2013-01-07 20:45:00,
2013-01-07 21:00:00,49.0,47.9,30.02,WNW,294,1.0,3.0,96,0.00,CLR,,0.41,WeatherDisplay:10.37,2013-01-07 21:00:00,
2013-01-07 21:15:00,49.1,48.0,30.02,WNW,303,1.0,3.0,96,0.00,CLR,,0.41,WeatherDisplay:10.37,2013-01-07 21:15:00,
2013-01-07 21:30:00,49.1,48.3,30.02,NW,309,1.0,3.0,97,0.00,CLR,,0.41,WeatherDisplay:10.37,2013-01-07 21:30:00,
2013-01-07 21:45:00,49.2,48.4,30.02,NW,306,1.0,3.0,97,0.00,CLR,,0.41,WeatherDisplay:10.37,2013-01-07 21:45:00,
2013-01-07 22:00:00,49.3,48.5,30.02,WNW,293,1.0,3.0,97,0.00,CLR,,0.41,WeatherDisplay:10.37,2013-01-07 22:00:00,
2013-01-07 22:15:00,49.4,48.6,30.01,NW,323,1.0,3.0,97,0.00,CLR,,0.41,WeatherDisplay:10.37,2013-01-07 22:15:00,
2013-01-07 22:30:00,49.4,48.6,30.01,NNW,339,0.0,2.0,97,0.00,CLR,,0.41,WeatherDisplay:10.37,2013-01-07 22:30:00,
2013-01-07 22:45:00,48.6,47.6,30.01,ESE,116,1.0,2.0,96,0.00,CLR,,0.41,WeatherDisplay:10.37,2013-01-07 22:45:00,
2013-01-07 23:00:00,48.1,47.0,30.02,East,87,0.0,2.0,96,0.00,CLR,,0.41,WeatherDisplay:10.37,2013-01-07 23:00:00,
2013-01-07 23:15:00,47.7,46.6,30.02,East,82,2.0,4.0,96,0.00,CLR,,0.41,WeatherDisplay:10.37,2013-01-07 23:15:00,
2013-01-07 23:30:00,47.1,46.3,30.03,East,81,1.0,4.0,97,0.00,CLR,,0.41,WeatherDisplay:10.37,2013-01-07 23:30:00,
2013-01-07 23:45:00,46.9,46.1,30.02,East,84,2.0,3.0,97,0.02,RA,,0.43,WeatherDisplay:10.37,2013-01-07 23:45:00,